Theta_e
298 298 298 298 298 297 297 297 297 297 297 297 297 297 297 298 300 304 303 300 299 300 299 300 300 300 301 301 301 302 302 302 302 302 302 302 302 302 303 303 304 304 305 306 307 309 310 312 314 316 317 319 320 322 323 325 326 327 328 328 327 327 327 327 326 321 318 320 323 325 325 326 326 327
298 298 298 298 298 297 297 297 297 297 297 297 297 297 297 297 297 300 303 301 299 299 299 299 300 300 300 301 301 301 302 302 302 303 303 303 304 304 303 303 304 304 305 307 308 309 310 311 312 314 316 317 318 320 321 322 324 325 326 327 326 327 326 327 327 324 319 318 322 324 324 326 327 327
298 298 298 297 297 297 297 297 297 297 297 296 297 296 297 297 297 297 300 301 299 298 299 299 299 299 300 300 301 301 301 301 302 302 303 304 304 305 305 305 305 305 306 307 308 309 309 310 311 312 314 315 316 318 319 320 321 323 324 325 325 326 326 326 327 326 323 319 319 323 325 326 327 327
298 298 298 297 297 297 297 297 297 297 296 296 296 297 296 297 297 297 298 299 298 298 298 298 298 298 298 299 300 300 300 301 301 302 302 303 303 304 305 305 306 306 307 307 308 308 309 310 310 311 312 313 314 315 316 318 319 320 322 323 324 325 325 326 326 327 326 322 318 321 324 325 326 327
297 297 297 297 297 297 297 297 297 296 296 296 296 296 296 296 296 297 297 297 298 297 297 297 297 298 298 298 298 299 300 300 300 301 301 302 302 303 303 304 305 305 306 306 306 307 308 308 309 310 311 311 312 313 314 315 316 318 319 321 322 323 323 324 324 325 326 325 320 318 322 325 326 326
297 297 297 297 297 297 297 297 297 296 296 296 296 296 296 296 296 296 296 296 296 296 296 297 297 297 297 297 297 298 299 299 299 300 301 301 301 301 302 302 303 303 303 304 304 305 306 306 307 308 309 310 311 311 312 313 314 315 317 319 320 321 322 323 323 324 324 325 322 318 320 323 325 325
297 297 297 297 296 296 297 296 296 296 296 296 296 296 296 296 296 296 296 296 296 296 296 296 296 296 296 296 297 297 298 298 299 299 300 300 301 301 301 301 301 302 302 302 303 303 304 304 304 305 306 307 308 310 311 312 313 313 315 316 318 319 320 321 322 323 323 324 323 319 319 322 324 324
298 297 297 296 296 296 296 296 296 296 296 296 296 296 296 296 296 295 295 296 295 295 295 295 295 296 295 296 296 296 297 297 298 298 299 299 300 300 300 300 301 301 301 301 302 302 302 303 303 303 304 304 305 307 308 309 311 312 313 314 315 317 319 319 320 321 322 323 323 320 319 321 323 324
298 297 297 296 296 296 296 296 296 296 296 296 296 296 295 295 295 295 295 295 295 295 295 295 295 295 295 295 295 296 296 296 297 297 297 298 298 299 299 299 300 300 300 301 301 301 302 302 302 302 303 303 303 304 305 306 307 308 310 311 313 314 316 317 319 320 321 322 322 321 319 320 322 323
298 297 297 297 296 296 296 296 296 296 296 296 295 295 295 295 295 295 295 295 295 295 294 294 294 294 294 295 295 295 295 296 296 296 297 297 297 297 298 298 299 299 299 300 300 301 301 301 302 302 302 302 303 303 303 304 304 305 306 307 309 311 313 315 317 318 319 320 321 320 319 319 321 322
298 297 297 297 297 296 296 296 296 296 296 296 295 295 295 295 295 295 295 295 295 295 294 294 294 294 294 294 294 294 295 295 295 295 296 296 296 296 297 297 298 298 298 299 299 300 301 301 301 302 302 302 302 303 303 304 304 304 304 305 306 307 310 312 314 317 318 319 320 320 319 317 318 320
298 297 297 297 297 297 297 297 296 296 296 295 295 295 295 295 295 295 295 295 294 294 294 294 293 293 293 293 294 294 294 294 295 295 295 295 296 296 296 296 297 297 297 298 299 299 300 300 301 301 302 302 302 302 303 303 304 304 304 305 305 305 306 308 310 313 316 318 318 319 319 316 314 316
298 298 297 297 297 297 297 297 297 296 296 295 295 295 295 295 295 295 295 295 294 294 294 294 293 293 293 293 293 293 294 294 294 295 295 295 295 295 295 296 296 296 297 297 297 298 299 299 300 300 301 301 301 302 302 303 303 304 304 304 305 305 305 306 306 308 312 315 317 318 319 318 316 314
298 298 298 298 298 298 298 298 297 296 296 295 295 295 295 295 295 295 295 295 294 294 294 293 293 293 293 292 292 293 293 293 294 294 294 294 295 295 295 295 295 296 296 296 296 297 297 298 298 299 299 300 300 300 301 302 303 303 304 304 304 305 305 306 306 306 307 310 313 316 317 318 319 317
298 298 298 298 298 298 298 298 298 297 296 295 295 295 295 294 294 295 295 295 294 294 293 293 293 293 292 292 292 292 292 293 293 293 294 294 294 294 294 295 295 295 295 296 295 295 296 297 297 297 298 298 299 299 300 301 302 303 303 304 304 304 305 306 306 306 306 306 308 311 314 316 318 319
298 299 299 298 299 299 298 298 298 297 296 295 295 295 294 294 294 294 294 294 294 294 293 293 293 293 293 292 292 292 292 293 293 293 293 293 294 294 294 294 294 295 295 295 295 295 295 295 295 295 296 297 298 298 299 300 301 302 303 303 303 304 304 305 306 307 307 307 306 307 309 311 315 317
297 298 299 298 299 299 299 299 298 298 297 296 295 295 294 294 294 294 294 294 294 294 293 293 293 292 292 292 292 292 292 292 292 292 293 293 293 293 293 294 294 294 294 294 294 294 295 295 295 294 295 296 296 297 298 299 300 301 302 303 303 303 304 305 305 306 306 307 307 307 307 307 310 313
296 297 298 299 299 299 299 299 298 298 297 296 296 295 294 294 294 294 294 294 294 293 293 293 293 292 292 292 292 292 292 292 292 292 292 293 293 293 293 293 293 293 293 294 294 294 294 294 294 294 294 295 295 296 297 298 299 300 301 302 302 303 304 304 304 305 306 306 307 307 308 307 307 308
296 297 298 298 298 298 299 299 298 299 298 297 296 295 295 294 294 294 294 294 294 294 293 293 293 293 292 292 292 292 292 292 292 292 292 292 292 292 292 292 292 293 293 293 293 293 293 293 293 293 294 294 295 295 296 297 298 299 300 301 302 302 303 304 304 304 304 305 306 307 308 309 308 308
296 296 297 298 298 298 298 298 298 299 299 297 296 296 295 294 294 294 294 294 294 294 294 294 293 293 292 292 292 292 292 292 292 292 292 292 292 292 292 292 292 292 292 293 293 293 292 293 293 293 293 294 294 295 295 296 297 298 299 300 301 302 303 303 303 303 304 304 305 306 307 308 309 309
296 296 296 297 297 297 297 298 298 299 299 298 297 296 295 295 294 294 294 294 294 294 294 294 293 293 292 292 292 292 292 292 292 292 292 293 292 292 292 292 292 292 292 292 292 292 292 292 293 293 293 293 294 294 295 295 296 297 298 299 300 301 302 303 303 303 304 304 304 305 306 307 308 309
295 295 295 296 296 297 297 297 298 298 299 298 297 296 295 295 295 294 294 294 294 294 294 294 293 293 292 292 292 292 292 292 292 292 292 292 292 291 291 292 292 292 291 292 292 292 292 292 292 293 293 293 293 294 294 295 295 296 297 298 299 300 301 302 303 303 303 304 304 305 306 307 308 309
295 295 295 295 295 296 296 296 297 298 298 298 297 296 296 296 295 294 294 294 294 294 294 294 293 293 292 292 292 292 292 292 292 292 292 291 291 291 291 292 293 293 291 291 292 291 291 291 291 292 293 293 293 293 293 294 295 295 296 297 298 300 301 302 302 303 303 303 303 304 305 306 307 308
295 294 294 294 295 295 295 296 297 297 297 297 296 296 296 296 295 294 294 294 294 294 294 293 293 293 292 292 292 292 292 292 292 292 292 291 291 291 291 291 292 292 291 290 291 291 291 291 291 291 292 293 293 292 293 293 294 295 296 297 298 299 300 301 302 302 303 302 302 303 303 305 306 307
294 294 294 294 294 294 295 295 296 296 297 296 296 295 296 295 294 294 294 294 293 293 293 294 293 293 292 292 292 292 292 292 292 292 292 292 291 291 291 291 291 291 290 290 291 291 290 291 291 291 291 292 292 292 292 293 293 294 295 296 297 298 299 300 301 302 302 302 302 302 302 302 304 305
294 294 294 294 294 294 294 294 295 295 295 295 295 295 294 294 294 294 294 294 294 294 294 294 293 293 293 292 292 292 292 292 292 292 292 292 292 291 291 291 291 291 291 291 291 291 290 290 290 291 291 291 292 292 292 292 292 293 294 295 296 297 299 299 300 301 301 301 302 302 302 301 302 303
294 294 294 294 294 294 294 294 294 294 294 294 294 294 294 294 294 294 293 293 293 293 293 293 293 293 293 292 292 292 292 292 292 292 292 292 292 292 291 291 291 291 291 291 291 291 291 290 290 290 290 291 291 291 291 291 292 292 293 294 295 296 298 299 299 300 300 300 301 302 302 302 302 302
294 294 294 294 294 294 294 294 294 294 294 294 294 294 294 294 294 293 293 293 293 293 293 293 293 293 293 293 292 292 292 292 292 292 292 292 292 292 292 292 291 291 291 291 291 292 292 291 291 291 290 290 291 291 291 291 291 291 292 293 294 295 296 298 298 299 299 299 300 301 301 302 302 302
294 294 294 293 294 294 294 294 294 294 294 294 293 293 293 293 293 293 293 293 293 293 293 293 293 293 292 293 292 292 292 292 292 292 292 292 292 292 292 292 292 292 292 292 292 292 292 292 292 291 291 290 290 291 291 291 291 291 291 292 292 293 294 296 297 298 299 299 299 300 300 300 300 301
294 294 293 293 293 293 293 293 294 294 294 293 293 293 293 293 293 293 293 293 293 293 293 293 293 293 292 292 292 292 292 292 292 292 292 292 293 292 292 294 294 293 292 292 292 292 292 292 292 292 291 291 290 290 291 290 290 290 290 291 291 292 293 294 296 297 298 298 298 299 299 299 300 300
294 294 293 293 293 293 293 293 293 293 293 293 293 293 293 293 293 293 293 293 293 293 293 293 292 292 292 292 292 292 292 292 292 292 292 292 292 292 292 294 294 293 293 293 292 292 292 292 292 292 292 292 291 291 291 290 290 290 290 290 290 291 291 293 294 295 296 297 297 298 299 299 300 300
294 294 294 293 293 293 293 293 293 293 293 293 293 293 293 293 293 293 293 293 293 293 293 293 292 292 292 292 292 292 292 292 292 292 292 292 292 292 293 293 293 293 293 293 292 292 292 292 292 292 292 292 292 292 291 291 290 290 290 290 290 290 290 291 292 293 294 295 296 297 298 298 299 299
294 294 294 294 293 293 293 293 293 293 293 293 293 293 293 293 293 293 293 293 293 293 293 292 292 292 292 292 292 292 292 292 292 292 292 292 292 292 293 294 293 292 292 292 292 292 292 292 292 292 292 292 292 292 292 292 291 290 290 290 290 290 290 290 290 291 293 294 295 296 296 297 298 298
294 294 294 294 294 293 293 293 292 292 292 293 293 293 293 293 292 292 292 292 293 293 292 292 292 292 292 292 292 292 292 292 292 293 292 292 292 292 292 293 293 292 292 292 292 292 292 292 292 293 293 293 293 293 292 292 292 292 291 290 290 290 290 290 290 290 291 292 293 294 295 295 296 297
294 294 294 294 294 293 293 293 292 292 292 292 292 292 292 292 292 292 292 292 292 292 292 292 292 292 292 292 292 292 292 292 292 292 292 292 292 292 292 292 292 292 292 292 292 292 292 292 292 293 294 295 295 294 293 292 292 292 292 291 291 290 290 290 290 290 290 290 291 292 293 293 294 295
294 294 294 294 293 293 293 293 292 292 292 292 292 292 292 292 292 292 292 292 292 292 292 292 292 292 292 292 292 292 292 292 292 292 292 292 292 292 292 292 292 292 292 292 292 293 293 293 292 293 294 295 295 295 294 292 292 292 292 292 292 291 290 290 290 289 289 289 290 290 291 292 292 293
294 294 294 294 293 293 293 293 292 292 292 292 292 292 292 292 292 292 292 292 292 292 292 292 292 292 292 292 292 292 292 292 292 292 292 292 292 292 292 292 292 292 292 293 293 293 293 293 293 293 293 294 295 295 294 293 292 292 292 292 292 292 291 291 290 290 289 289 289 289 290 290 291 291
294 294 294 294 293 293 293 292 292 292 292 292 292 292 292 292 292 292 292 292 292 292 292 292 292 292 292 292 292 292 292 292 292 292 292 292 292 292 292 292 292 292 292 293 293 293 294 294 294 293 293 293 294 294 293 293 293 293 292 292 292 292 292 292 291 290 290 289 289 289 289 289 290 290
294 294 294 294 293 293 293 292 292 292 292 292 292 292 292 292 292 292 292 292 292 292 292 292 292 292 292 292 292 292 292 292 292 292 292 292 292 292 292 292 292 292 293 293 293 293 294 293 294 294 293 293 293 293 292 292 292 293 292 292 292 292 292 292 292 292 291 290 290 290 290 289 289 289
293 293 294 294 294 293 293 293 293 293 293 293 292 292 292 292 292 292 292 292 292 292 292 292 292 292 292 292 292 292 292 292 292 292 292 292 292 292 292 292 292 292 293 293 293 293 293 293 293 293 293 293 293 293 293 293 293 293 293 292 292 292 292 292 292 292 292 291 291 290 290 290 289 289
293 293 294 294 294 293 293 294 294 294 294 293 293 293 293 293 292 292 292 292 292 292 292 292 292 292 292 292 292 292 292 292 292 292 292 292 292 292 292 292 292 292 293 293 293 293 293 293 293 293 293 293 293 293 293 293 293 293 293 293 292 292 292 292 292 292 292 292 291 292 292 291 290 290
293 294 294 294 294 294 294 294 295 294 294 294 294 294 294 294 293 293 293 293 293 292 292 292 292 292 292 292 292 292 292 292 292 291 291 291 292 292 292 292 292 292 292 292 293 293 293 293 293 293 292 292 292 292 292 292 292 292 293 293 293 293 293 293 292 292 292 292 292 292 292 292 292 292
295 294 294 294 294 294 294 294 295 295 294 294 294 294 294 294 294 294 294 294 293 293 293 293 293 293 292 292 292 292 292 292 292 291 291 291 291 291 291 292 292 292 292 292 293 293 293 293 293 292 292 292 291 291 291 291 291 291 291 291 292 292 293 293 293 293 292 292 292 292 292 292 292 292
295 295 294 294 294 294 294 294 295 295 295 294 294 294 295 295 295 295 295 295 295 294 294 294 294 294 294 293 293 293 292 292 292 292 292 291 291 291 291 291 291 291 292 292 292 292 292 292 292 292 292 291 291 291 290 290 290 291 291 291 291 291 291 291 292 292 293 292 292 292 292 292 291 292
295 295 294 294 293 293 294 294 295 295 295 295 295 295 295 295 295 296 296 296 296 296 296 296 295 295 295 294 294 293 293 292 292 292 292 292 292 292 291 291 291 291 291 291 291 292 292 292 292 292 291 291 291 290 290 290 290 290 290 291 291 291 291 291 291 291 292 292 293 292 292 292 292 292
Wind_Speed
13 13 13 14 16 18 18 19 21 21 22 23 23 24 24 23 18 14 17 23 26 26 28 29 29 31 31 31 32 32 31 30 29 28 27 26 26 26 25 24 24 24 23 23 23 23 22 22 21 21 21 19 17 15 13 13 14 18 23 26 31 33 32 32 28 28 37 43 40 39 39 38 40 42
13 12 13 15 17 17 18 19 20 21 22 23 24 24 23 23 23 20 16 19 24 25 27 29 29 29 30 31 31 31 31 31 30 28 27 26 25 25 25 25 24 24 24 24 24 23 23 23 23 22 22 21 20 18 15 13 13 13 17 20 26 31 32 34 33 30 34 42 44 40 39 39 42 45
13 12 13 16 17 16 17 19 20 21 22 23 23 23 23 22 22 22 19 17 21 25 26 27 27 28 29 30 29 30 30 31 31 29 27 27 26 26 26 26 25 25 24 25 24 24 24 23 23 23 22 22 21 20 19 16 13 12 13 15 20 26 31 34 36 35 33 39 46 44 40 39 42 45
12 12 14 16 16 15 16 18 20 20 21 22 23 22 23 22 20 21 21 20 21 23 24 25 26 27 29 29 29 30 30 30 31 31 29 29 28 29 29 28 27 26 26 26 26 25 25 24 24 24 23 23 22 21 21 20 16 13 13 13 15 20 24 29 36 40 37 37 43 45 42 40 42 45
12 12 14 15 15 14 16 18 18 19 20 21 22 23 23 22 21 20 22 22 21 22 24 25 26 28 29 30 30 30 30 31 32 32 31 30 31 31 30 29 29 28 27 27 27 27 26 25 25 24 24 23 23 22 21 21 20 17 14 12 14 16 18 20 25 34 39 39 42 45 43 40 41 43
11 12 13 14 14 13 15 17 17 18 19 20 22 23 23 23 22 21 22 23 23 24 25 26 26 28 29 29 30 29 29 29 30 31 32 32 32 32 31 30 29 28 28 28 28 27 26 26 26 25 25 24 23 23 21 21 21 20 17 14 13 14 16 17 16 18 26 33 38 44 43 40 39 40
11 12 13 14 13 13 14 16 16 17 18 20 21 22 23 23 23 22 22 23 25 25 25 26 27 27 28 28 27 27 27 27 28 30 31 31 32 33 32 31 30 29 29 28 28 28 27 27 27 26 25 24 23 22 21 21 20 20 19 17 14 13 13 15 15 13 15 23 34 41 43 39 35 36
11 12 13 13 13 13 14 15 16 16 17 18 19 21 22 22 22 22 23 24 25 25 25 26 27 27 28 28 27 27 27 27 28 29 30 30 31 32 32 32 31 30 30 30 29 28 27 27 27 27 26 25 24 23 21 20 19 19 19 18 16 14 12 12 13 13 11 17 28 38 43 41 35 33
11 12 13 14 13 13 14 15 15 14 15 17 18 19 20 20 21 21 22 23 25 26 26 27 27 27 28 29 28 29 29 29 28 29 29 30 31 31 32 32 32 32 32 34 33 30 29 28 27 27 27 27 27 25 24 22 20 19 18 18 17 15 14 11 10 11 11 15 22 30 40 44 40 36
11 13 14 14 13 13 15 15 15 14 14 15 17 18 19 19 20 21 22 23 25 26 27 27 28 28 29 29 29 30 31 31 30 30 30 30 31 32 32 32 33 33 34 37 37 35 33 32 30 28 28 28 29 28 28 26 25 23 21 19 17 15 14 12 9 9 12 17 21 25 35 45 46 41
11 13 14 14 14 14 15 15 15 14 14 15 16 17 18 18 19 21 22 24 25 26 27 28 29 29 29 29 30 30 31 31 31 31 31 31 31 32 33 32 33 33 35 37 38 37 36 35 33 32 31 30 30 30 30 29 29 28 26 23 20 17 15 13 10 9 11 17 23 26 30 40 47 47
10 12 13 14 14 14 14 15 15 15 14 15 16 17 18 18 20 21 22 24 24 25 27 28 29 29 29 31 31 31 32 32 32 32 31 31 32 33 33 33 33 33 34 37 38 37 37 37 37 36 35 34 33 33 32 31 30 29 28 27 24 21 17 14 12 10 11 14 20 26 29 33 41 47
10 10 11 13 13 13 14 15 15 15 15 15 16 17 17 18 20 21 22 23 24 24 26 27 28 29 30 31 32 32 32 32 31 30 30 31 32 32 32 32 33 33 33 35 37 36 36 37 38 38 37 37 37 36 34 33 31 30 29 28 26 24 21 17 14 12 11 13 15 21 26 30 36 43
9 9 10 11 12 12 13 14 15 16 15 15 15 16 17 18 19 20 21 22 23 23 25 26 27 28 29 30 30 30 29 29 29 30 30 31 32 32 32 32 33 32 32 34 35 34 35 36 37 38 38 39 39 38 37 35 33 31 30 30 28 26 24 21 17 14 12 12 14 17 22 27 31 38
8 8 8 9 10 10 11 13 14 15 15 15 15 15 16 17 18 19 20 21 22 22 23 25 26 27 28 28 28 28 28 28 29 30 30 31 32 33 34 34 33 32 32 32 33 32 34 36 37 37 38 39 39 39 38 36 34 33 32 33 32 30 26 23 20 18 15 13 14 16 20 23 27 31
7 8 8 8 9 9 9 11 13 14 15 15 14 15 16 17 18 18 19 20 20 21 22 23 25 26 26 26 27 27 28 28 28 28 29 31 32 32 33 34 34 33 32 32 31 30 32 35 37 36 37 38 38 39 39 38 36 35 35 35 37 35 31 25 21 20 18 16 15 16 18 22 25 28
7 7 7 8 8 8 8 9 11 13 14 14 14 14 15 16 17 17 18 19 19 19 20 22 23 24 24 25 25 26 27 27 27 27 27 28 30 31 33 34 34 33 33 33 33 30 30 33 36 36 36 37 37 38 39 39 38 37 38 38 39 38 35 30 26 22 21 20 19 18 18 20 23 26
6 6 7 7 6 7 7 7 9 10 12 13 13 13 14 15 16 16 16 18 18 18 19 20 21 22 22 22 22 23 25 25 25 26 25 25 28 31 32 32 33 33 34 34 34 33 30 31 34 36 36 36 37 37 38 38 38 38 39 40 40 39 38 36 32 27 24 22 21 20 20 20 21 23
6 5 6 6 5 6 6 6 7 8 10 11 11 12 13 14 14 14 15 15 16 17 17 18 19 20 20 21 21 21 23 22 23 25 24 25 28 29 28 30 32 33 34 34 36 36 33 31 31 33 36 37 37 38 38 38 38 39 40 41 40 40 39 38 36 34 29 25 22 21 21 20 20 21
6 5 6 6 5 5 5 5 6 6 8 9 10 11 12 12 13 13 13 14 14 15 15 16 18 19 20 20 20 20 21 21 23 24 24 26 29 28 27 28 31 32 33 35 36 36 34 33 31 31 35 39 39 39 39 39 39 39 40 41 40 40 39 38 37 37 35 32 26 22 21 20 18 17
6 6 6 6 6 5 5 5 5 5 6 7 8 9 10 11 12 12 12 12 12 13 14 14 16 17 18 19 19 20 20 21 22 24 25 27 29 29 29 29 29 30 32 34 34 35 35 36 34 32 34 37 39 40 41 41 41 40 41 41 40 39 39 38 36 36 38 37 32 26 22 19 17 14
7 6 6 6 6 5 5 5 5 5 5 5 6 8 9 10 10 11 11 12 12 12 12 13 14 15 16 17 17 18 19 20 22 23 25 27 28 28 29 28 26 28 31 32 32 33 35 37 37 35 34 34 37 40 41 42 42 42 42 42 41 41 40 39 36 35 36 39 37 30 24 20 17 14
7 7 6 6 6 6 5 5 5 4 4 3 4 6 7 7 8 9 10 11 10 10 10 11 12 13 14 15 16 17 19 19 21 22 23 24 26 26 27 27 25 26 29 30 31 33 35 36 37 37 35 32 35 40 41 41 43 43 43 43 42 42 42 41 38 35 35 39 40 35 30 24 19 15
7 7 7 6 6 6 5 5 5 4 3 2 3 5 5 4 6 8 9 9 9 9 9 10 11 12 13 14 15 16 18 18 20 21 22 23 24 24 25 26 24 24 26 28 29 31 34 35 35 36 34 31 33 39 40 41 42 43 44 43 43 43 43 43 41 38 36 37 40 40 37 32 26 21
7 7 7 7 6 6 5 5 5 4 3 1 1 3 3 3 5 7 7 8 8 8 9 9 10 11 12 13 14 15 16 17 18 19 21 22 23 23 24 25 24 23 24 26 28 30 32 33 33 35 34 32 33 38 40 40 41 42 43 43 42 42 42 43 42 41 38 37 38 40 42 40 37 31
7 7 7 7 6 6 6 5 5 4 3 2 2 2 2 3 4 6 6 7 7 7 7 7 8 9 10 12 13 14 15 16 16 17 19 21 21 22 22 22 23 23 24 25 28 29 30 31 31 33 34 33 34 36 38 40 41 41 41 42 42 42 41 42 42 42 41 39 37 36 37 40 41 39
7 7 7 7 6 6 6 6 6 5 4 4 3 2 2 3 4 4 5 5 5 5 6 6 7 8 9 11 12 13 13 14 15 16 17 18 19 20 20 20 21 22 23 25 27 28 29 30 30 31 32 33 33 34 36 38 40 40 40 42 42 41 41 41 41 42 42 41 39 37 35 35 37 39
7 6 6 7 7 7 7 6 6 6 5 5 4 3 3 3 3 3 3 4 4 4 5 6 6 7 9 10 11 11 12 13 14 14 15 16 17 18 18 19 19 20 21 23 25 26 27 28 29 29 30 30 31 32 33 34 37 40 40 41 42 41 41 40 40 41 42 41 41 40 39 38 37 37
7 6 6 6 7 7 8 7 7 7 6 6 5 4 3 3 3 3 2 2 2 3 4 4 5 6 7 9 9 10 12 13 13 14 13 14 14 15 16 17 18 19 20 21 23 24 25 26 27 28 29 29 28 29 31 32 34 37 39 40 41 41 41 39 38 39 40 41 41 41 40 40 39 39
7 7 6 7 8 8 8 8 7 7 7 6 5 4 4 3 3 2 2 2 1 2 2 3 4 5 6 7 8 9 11 12 12 13 13 13 13 13 14 14 14 17 19 20 21 22 23 24 25 26 27 27 27 27 30 31 32 34 36 38 39 40 41 40 38 38 38 39 39 39 39 38 38 40
7 6 6 7 8 8 8 8 7 7 6 6 5 5 4 3 3 2 2 2 1 0 1 2 3 4 5 6 7 8 10 11 11 12 12 13 13 14 13 12 12 14 16 18 19 20 21 22 23 24 25 26 26 27 29 30 31 31 32 34 37 38 39 39 39 38 37 36 37 38 38 38 37 38
8 7 6 7 8 9 8 7 7 7 6 6 6 5 4 4 3 3 2 2 2 1 1 2 3 4 5 6 6 7 8 9 10 10 11 12 12 13 14 13 13 14 14 14 16 17 18 20 21 22 23 23 24 27 28 29 29 30 30 31 33 34 36 38 39 38 36 35 36 37 37 38 38 38
9 8 7 7 8 8 8 7 7 6 6 6 5 5 4 4 3 3 3 3 3 3 2 2 3 4 5 5 6 6 7 8 9 9 10 11 12 13 13 12 13 15 15 15 15 15 16 17 18 19 20 20 22 25 27 27 28 28 29 30 30 31 33 34 36 36 36 36 36 35 36 37 38 37
11 9 8 7 8 8 8 8 7 7 7 6 6 5 5 5 4 4 4 4 4 4 3 3 4 4 5 5 6 6 6 7 8 8 9 10 11 12 12 11 12 14 15 15 16 16 15 16 17 17 18 19 20 23 25 26 26 27 28 28 28 29 30 31 32 33 34 35 35 35 35 35 35 35
12 11 10 9 8 9 9 9 8 8 8 7 7 6 6 6 5 5 5 5 5 5 4 4 5 5 5 5 5 6 6 6 7 8 9 9 10 10 11 11 11 13 14 15 16 16 17 17 17 16 16 16 16 17 21 24 24 25 26 26 27 27 27 28 29 30 31 32 33 34 35 35 34 33
14 12 11 10 9 9 9 9 9 9 8 8 8 8 7 7 7 6 6 6 6 6 5 5 5 6 6 6 6 6 7 7 7 7 8 8 9 9 10 11 11 12 13 13 14 15 16 17 17 16 15 15 13 13 16 20 22 23 23 24 25 26 26 26 27 28 29 30 31 31 33 34 34 33
16 14 12 11 10 10 10 10 10 10 9 9 9 9 8 8 8 8 8 7 7 7 7 6 6 7 7 7 7 7 8 7 8 8 8 8 8 9 9 10 11 11 11 12 13 14 14 15 15 16 15 15 13 12 14 17 19 20 22 22 23 24 25 25 26 26 26 27 27 28 29 29 30 31
17 16 14 12 12 11 11 11 11 11 10 10 10 10 9 9 9 9 9 9 9 9 8 8 8 8 8 8 8 8 9 9 9 9 9 9 9 9 9 10 10 10 10 11 11 12 13 13 14 14 14 14 13 14 16 17 17 17 19 20 20 22 23 23 24 24 25 25 24 24 25 25 24 25
19 17 15 14 13 12 12 12 12 11 10 11 11 10 10 10 10 10 10 10 10 10 10 10 9 9 9 9 9 9 10 10 10 10 10 10 10 9 9 10 10 10 10 10 10 11 11 12 12 12 13 13 13 13 15 16 15 16 17 18 18 19 20 21 21 22 22 22 22 22 22 21 22 22
20 18 17 15 14 13 12 11 11 10 10 11 11 10 10 10 11 11 11 11 11 11 11 11 11 11 10 11 11 11 11 11 12 12 11 11 11 10 10 11 10 10 10 10 10 10 10 11 12 12 12 13 13 13 14 14 15 15 15 16 16 17 17 18 18 19 19 20 20 19 19 19 20 20
20 19 18 16 15 14 13 12 11 10 10 10 10 10 10 11 11 11 11 11 12 12 12 11 12 12 12 12 13 13 13 13 13 13 13 13 13 13 12 12 12 12 12 11 10 10 11 12 12 13 13 13 14 14 14 13 14 13 13 14 16 16 15 16 16 16 17 18 18 17 16 16 17 16
19 19 19 17 15 15 14 12 12 11 11 11 10 10 10 10 10 11 12 12 12 12 12 12 12 12 13 13 13 14 15 15 15 15 15 15 15 15 14 14 14 13 14 13 13 12 13 13 13 13 14 14 15 15 14 13 15 15 15 15 16 16 15 15 15 15 15 15 16 14 14 13 12 11
19 19 19 18 16 15 15 13 12 12 12 12 11 11 11 11 11 11 12 12 12 12 12 12 12 12 13 13 14 15 15 15 15 16 16 16 17 17 17 17 16 16 16 16 15 15 15 15 14 14 14 14 14 15 15 16 17 17 17 17 16 16 16 16 15 14 13 13 13 13 12 12 11 10
19 19 19 18 17 16 15 14 13 12 12 12 12 12 12 12 12 12 12 12 12 12 12 12 13 13 13 14 15 16 16 15 15 16 17 17 18 18 18 19 19 18 18 18 18 17 16 16 16 16 15 15 15 15 16 16 17 17 17 18 18 17 16 16 16 15 14 12 12 12 12 11 11 11
16 17 18 18 18 17 16 15 14 13 13 13 13 13 13 13 13 13 13 12 12 12 13 13 14 14 14 14 15 16 17 17 17 18 19 19 19 20 20 20 20 20 20 20 20 19 18 18 18 18 18 17 18 17 17 17 17 17 18 18 18 17 17 16 16 15 14 13 13 13 13 12 12 12
Wind_Direction
47 44 44 49 52 54 55 55 56 55 53 52 51 49 49 51 53 51 43 40 37 33 34 36 34 33 33 30 29 29 26 24 24 24 21 18 13 9 6 4 2 0 0 0 359 358 357 356 353 351 350 349 344 335 320 304 283 258 250 242 231 231 237 239 238 231 221 221 225 228 228 224 222 220
51 49 52 57 57 57 58 58 58 57 55 53 52 51 50 50 52 57 55 44 41 39 37 37 35 35 36 34 31 30 28 27 28 28 25 22 18 15 11 8 6 4 3 3 2 0 359 358 356 354 352 352 350 345 336 322 309 288 268 251 236 232 237 241 242 239 227 222 223 227 229 228 225 221
56 56 60 61 61 60 61 61 60 58 57 55 54 53 52 50 50 56 61 53 45 44 41 39 36 36 38 36 33 33 30 29 31 32 30 27 24 22 19 16 13 10 9 7 4 3 2 360 358 356 354 354 353 352 350 341 325 309 290 269 250 240 238 239 241 242 237 227 224 225 229 232 229 221
62 62 65 65 63 63 63 64 63 61 60 58 57 56 54 53 51 57 65 62 53 48 46 43 37 36 39 37 34 33 31 30 32 34 34 31 29 27 24 21 18 16 15 13 9 6 5 3 1 359 357 356 354 353 353 353 347 331 311 290 271 256 248 243 240 240 240 233 228 226 228 233 231 221
68 67 69 69 67 66 65 67 65 64 63 60 59 57 56 55 53 56 64 66 61 54 50 47 40 36 37 36 34 33 30 29 30 33 34 32 32 31 27 24 21 18 18 17 12 9 8 7 5 3 1 359 356 355 353 354 355 350 336 313 292 281 271 263 251 242 241 237 230 227 228 234 234 223
73 72 74 73 71 69 68 69 68 66 64 61 59 57 54 54 53 53 58 62 60 54 50 49 46 41 38 36 34 34 33 31 31 33 34 33 33 32 29 26 23 20 20 19 14 11 10 10 9 7 4 2 359 357 356 354 354 355 352 340 318 302 291 285 275 256 251 245 233 226 226 233 238 230
79 78 78 76 73 71 71 71 69 67 64 62 59 57 53 51 51 52 55 59 59 55 50 48 47 46 44 41 37 36 37 36 35 36 36 36 35 33 31 29 26 24 23 22 18 15 14 13 12 10 9 7 4 1 359 356 354 353 353 350 342 325 307 294 284 275 266 248 233 225 223 228 238 239
86 83 82 80 76 73 73 73 71 67 66 64 61 58 54 51 50 52 54 58 60 59 55 51 47 46 46 45 42 41 42 41 39 40 39 38 38 36 34 31 29 28 27 27 24 20 19 18 15 14 13 12 10 8 5 2 358 354 351 350 349 342 329 310 289 280 267 240 229 225 222 224 231 238
90 88 86 84 80 77 76 76 74 69 67 65 62 59 55 52 52 53 55 56 58 58 57 54 50 47 46 44 42 42 44 43 42 43 42 40 40 38 35 32 30 29 30 30 28 24 24 23 19 18 17 16 16 14 12 10 7 3 357 351 349 347 342 331 304 284 262 231 224 225 224 223 226 233
93 92 91 87 83 78 75 75 73 69 66 64 62 60 57 55 55 56 56 56 56 56 56 53 50 48 47 45 42 40 42 42 41 43 44 41 41 41 37 33 31 30 32 32 28 25 27 27 24 22 21 19 20 18 16 14 12 9 6 359 351 347 343 338 321 292 261 230 219 223 225 223 223 227
97 94 93 89 84 76 72 70 68 65 62 60 60 58 56 56 57 58 57 56 56 55 55 53 50 48 46 45 44 42 42 43 41 43 44 41 41 41 38 35 32 31 33 34 30 25 27 28 26 25 24 22 21 20 18 16 13 10 7 4 358 351 342 336 326 304 270 239 227 227 228 226 223 224
98 94 91 88 84 77 71 66 63 61 59 57 57 55 53 53 55 57 57 56 55 54 53 52 50 48 45 44 43 41 41 42 41 41 44 43 42 42 38 34 33 30 32 36 32 26 26 28 26 25 24 23 22 21 18 17 15 12 7 5 2 357 349 338 325 308 284 257 240 234 232 229 225 224
101 96 92 88 84 78 71 65 59 58 58 58 57 54 52 52 52 54 55 55 55 53 53 53 51 48 46 44 42 39 39 40 40 40 42 44 45 45 41 36 34 31 31 36 35 27 25 28 28 24 22 23 23 21 19 17 15 13 11 8 4 360 354 346 334 314 291 274 256 243 237 233 230 228
109 102 95 89 85 77 70 64 58 54 54 57 58 56 53 52 52 53 55 55 55 53 53 53 51 50 48 46 43 41 40 40 41 40 41 43 44 45 44 40 36 32 32 36 37 29 25 30 31 27 24 24 24 22 20 19 17 16 15 13 8 3 357 349 341 328 305 283 267 256 249 242 237 234
120 116 105 97 90 80 71 64 57 53 51 52 55 56 55 53 53 54 56 57 56 55 54 53 52 51 49 47 45 42 41 41 41 40 40 41 42 43 43 41 38 34 33 36 38 30 25 30 33 29 26 26 25 24 22 20 19 19 19 17 14 8 359 351 343 334 322 302 279 264 257 251 245 240
128 126 118 110 104 91 75 65 58 53 49 48 50 53 55 54 53 54 57 58 58 58 57 54 52 51 49 46 44 41 41 41 42 41 40 41 44 43 42 41 38 36 35 37 38 30 22 27 32 29 26 26 26 25 23 20 19 20 21 21 18 12 5 358 350 339 330 318 300 280 265 256 251 246
134 132 128 120 113 101 84 69 61 53 49 47 47 51 55 55 53 54 57 59 60 59 58 55 52 51 50 47 43 41 41 41 41 42 41 43 46 45 43 41 38 36 36 39 40 32 22 25 30 27 25 27 27 26 24 22 21 21 22 22 19 15 11 7 1 352 342 331 319 303 284 268 257 250
141 138 135 129 121 112 99 80 67 57 49 47 46 49 55 57 55 54 56 59 60 59 58 55 53 51 50 48 44 41 41 41 42 44 42 43 47 46 44 42 38 36 35 38 41 36 26 26 30 27 25 27 28 28 26 24 23 23 24 22 18 15 14 13 11 4 354 343 332 321 306 288 271 258
154 149 144 144 136 123 115 98 81 64 51 47 47 50 55 59 58 55 56 59 60 60 58 54 52 50 48 47 44 41 41 40 42 45 44 44 48 47 43 41 39 36 34 35 39 37 30 29 31 28 26 28 28 27 27 26 25 26 26 23 19 16 14 14 13 11 5 355 343 333 323 308 289 271
167 164 158 159 155 139 129 114 96 77 56 47 47 51 54 59 61 58 57 58 60 61 59 54 51 48 45 44 42 40 39 37 40 44 43 44 47 45 43 40 37 35 34 33 36 35 30 32 34 30 28 29 27 26 27 26 25 27 29 26 20 17 16 14 13 12 10 6 358 346 336 325 309 288
179 178 171 168 166 157 143 127 112 93 65 44 46 54 54 56 59 58 58 59 60 61 58 52 49 47 44 42 41 39 38 35 37 40 40 41 43 41 40 39 34 32 33 33 35 34 30 31 33 33 33 30 25 24 26 25 25 27 30 28 23 20 19 18 15 12 11 10 6 359 353 345 333 316
182 180 177 173 172 171 160 142 128 110 80 47 44 57 58 55 56 57 58 59 57 56 53 49 48 45 42 41 41 40 39 36 35 38 38 39 40 38 37 36 32 29 31 31 33 35 32 30 29 31 35 32 27 26 25 24 23 26 29 29 25 22 22 22 21 17 15 14 12 8 7 3 353 343
183 179 179 180 177 178 176 158 143 128 98 59 49 60 61 55 55 57 58 58 53 50 49 47 47 44 40 39 39 39 39 36 35 37 38 38 40 39 37 35 31 26 25 27 30 33 33 31 29 29 30 28 26 28 27 24 22 23 27 28 26 24 24 25 24 23 22 22 21 18 17 14 8 2
190 186 184 188 185 184 186 172 157 146 122 79 61 70 68 59 61 63 61 61 58 54 53 53 50 46 40 38 37 37 37 36 35 37 37 37 38 38 37 36 34 28 23 24 28 31 32 30 29 31 31 25 24 28 29 27 23 23 25 27 26 24 25 26 26 25 26 29 31 29 27 25 20 15
197 198 196 195 191 190 192 183 172 164 156 141 96 93 94 85 78 71 63 61 58 51 49 50 48 46 41 38 37 36 35 35 35 36 37 36 35 35 35 35 35 32 27 25 27 30 31 29 27 29 32 29 26 28 30 29 27 25 25 26 26 25 26 28 28 27 27 29 33 35 35 34 31 25
198 199 197 195 194 193 194 189 183 180 180 184 164 127 120 102 83 74 66 61 55 46 44 45 45 48 47 40 37 35 33 33 34 35 35 35 34 33 33 33 34 33 30 29 29 30 30 28 26 26 29 29 27 28 29 29 28 28 27 27 27 26 27 30 31 30 29 28 30 33 37 40 39 36
197 195 195 196 197 195 192 186 182 180 183 182 171 150 137 115 89 77 68 62 56 47 43 43 43 47 49 45 39 35 31 31 32 34 34 33 31 31 30 30 32 31 30 30 31 31 30 28 26 25 27 28 27 27 28 28 27 27 28 29 28 27 28 31 32 33 33 31 29 30 32 38 42 42
194 196 196 198 198 196 192 185 179 177 177 174 167 159 152 136 107 88 74 63 57 48 39 36 36 40 45 44 39 33 30 27 27 29 30 29 28 25 25 26 28 29 29 28 29 30 29 28 26 25 27 28 27 27 28 28 27 27 28 30 30 28 29 32 33 35 35 33 31 30 30 33 37 39
190 189 188 189 191 192 190 184 178 176 173 169 167 164 157 147 127 107 95 83 65 48 32 27 30 34 38 39 35 31 27 23 20 20 22 24 23 20 19 19 19 22 25 25 25 26 26 26 24 24 26 27 27 29 30 29 29 28 27 29 31 29 29 32 34 36 37 36 34 34 34 35 38 39
190 184 181 183 185 187 186 181 177 174 171 167 168 168 162 155 146 134 132 134 109 59 30 22 21 25 31 34 31 27 25 21 16 12 13 14 14 16 20 17 9 10 16 19 21 22 20 21 22 21 23 24 24 27 31 30 29 29 27 28 30 30 29 31 34 36 39 39 37 37 38 39 41 44
197 191 186 184 185 185 183 178 175 174 171 170 173 174 171 166 161 164 173 179 176 139 24 10 6 12 21 27 27 24 22 19 15 12 13 11 7 9 17 17 7 6 8 9 12 15 15 15 17 17 18 19 19 24 30 30 27 27 27 28 30 30 28 30 34 36 39 40 39 39 40 40 42 46
203 203 198 192 187 186 184 180 178 177 176 179 182 181 179 180 183 193 204 211 222 234 295 344 351 359 5 10 15 17 16 13 12 14 14 11 8 9 11 9 5 7 9 5 5 9 9 10 13 13 13 14 15 21 28 29 26 26 26 27 29 29 27 29 32 35 37 39 40 40 41 41 42 45
213 215 212 202 193 190 189 187 187 188 187 191 196 195 194 195 202 214 221 231 242 250 274 313 329 341 348 352 358 3 4 2 4 10 10 8 8 10 9 3 358 3 9 7 4 6 6 5 8 11 11 12 14 19 25 26 24 23 24 25 26 27 26 27 29 32 35 38 41 42 43 43 43 43
218 223 223 215 204 199 196 195 197 201 203 205 211 215 215 214 218 223 229 236 243 251 269 290 302 316 326 332 339 345 348 349 352 358 1 2 3 3 3 359 353 356 3 4 3 3 4 4 5 6 6 7 8 12 18 21 20 20 22 23 23 24 24 25 27 29 32 36 39 41 43 44 45 44
222 227 229 226 219 212 207 203 205 210 213 216 222 228 231 232 233 235 239 243 248 255 268 280 289 298 305 312 321 327 333 340 343 344 348 354 355 353 353 352 349 351 356 358 359 1 3 6 7 4 360 359 357 359 6 12 15 16 17 19 20 20 21 23 24 26 28 31 35 39 41 43 44 45
227 231 233 233 229 223 216 212 212 215 219 223 227 233 238 243 246 248 250 251 255 260 266 275 284 290 295 300 307 313 321 328 332 334 335 339 343 345 346 345 345 347 350 351 355 359 2 5 7 5 0 358 357 353 356 2 8 12 12 13 14 16 17 20 21 22 23 25 29 33 37 40 42 43
226 229 230 232 232 228 222 218 217 219 222 226 231 236 241 247 252 256 258 259 262 265 267 272 278 282 287 293 298 303 310 314 319 323 325 326 331 337 339 338 339 342 344 347 351 357 0 3 6 6 3 358 355 350 348 353 0 5 6 6 7 9 12 15 17 18 20 21 23 27 32 36 39 41
227 228 229 230 232 231 227 224 223 224 226 230 235 238 241 247 252 256 259 260 263 267 270 272 275 278 281 286 292 296 301 304 306 311 315 317 319 323 326 329 332 333 336 341 346 350 355 358 1 4 5 0 351 344 345 351 355 355 358 1 1 2 6 9 11 12 14 16 18 21 26 30 33 37
226 228 229 230 231 232 232 230 229 230 231 234 239 242 244 248 252 256 260 262 263 266 269 271 273 275 277 282 286 289 292 295 297 299 303 305 306 310 313 318 321 322 324 331 336 341 345 349 351 354 359 360 354 346 345 349 352 351 352 355 356 356 359 2 4 6 7 8 12 15 16 20 23 28
228 230 232 233 233 233 232 231 232 235 237 239 242 245 247 250 254 258 261 263 263 265 268 270 272 274 276 280 284 286 288 291 292 291 292 293 295 298 300 304 308 310 311 315 322 327 330 333 337 341 345 348 348 346 345 349 353 352 349 347 347 349 352 352 355 358 359 359 4 7 8 11 16 21
234 237 238 238 237 236 234 234 236 239 242 244 247 248 251 255 258 261 263 264 265 267 269 270 272 275 277 279 282 284 287 288 289 289 290 290 290 292 293 295 297 300 301 303 308 310 312 316 321 327 331 332 334 339 342 344 345 344 341 340 342 343 344 344 346 347 348 350 355 357 357 1 9 14
241 244 245 244 241 239 239 241 244 247 248 249 251 254 257 260 263 266 267 268 269 271 273 275 277 278 280 281 283 285 285 287 287 287 287 287 287 289 290 291 292 292 293 294 295 296 299 304 310 315 320 324 328 332 333 330 330 333 336 340 341 341 341 342 341 338 336 339 344 347 348 350 356 1
245 246 247 246 243 241 241 244 249 254 255 254 255 258 261 265 269 272 274 275 276 275 277 280 282 283 283 284 284 284 285 288 289 287 286 285 286 286 286 287 287 287 287 289 290 291 292 296 300 306 311 314 317 319 320 320 323 326 328 330 331 334 336 337 337 336 333 329 327 329 335 340 342 343
248 247 247 246 244 242 243 245 250 256 259 259 259 260 261 266 271 274 277 277 277 278 280 283 286 287 288 288 287 286 286 288 288 288 288 288 287 286 285 284 285 284 285 286 288 289 291 292 293 297 300 303 305 307 309 312 315 316 318 320 323 327 329 330 330 332 331 327 321 318 318 321 324 327
253 248 247 247 245 243 243 246 251 257 260 261 262 262 263 268 272 276 277 277 277 280 283 284 286 289 290 291 290 288 288 288 286 286 287 288 289 289 288 286 285 285 285 286 286 287 288 289 290 293 295 296 299 301 302 304 306 308 311 315 318 322 325 325 324 325 326 323 321 319 315 311 310 312